Time,TemperatureF,DewpointF,PressureIn,WindDirection,WindDirectionDegrees,WindSpeedMPH,WindSpeedGustMPH,Humidity,HourlyPrecipIn,Conditions,Clouds,dailyrainin,SoftwareType,DateUTC
2013-10-26 00:02:00,52.0,42.9,30.24,NNE,23,7.0,14.0,71,0.00,,,0.00,Wunderground v.1.15,2013-10-26 04:02:00,
2013-10-26 00:06:00,52.0,41.8,30.24,NE,47,8.0,14.0,68,0.00,,,0.00,Wunderground v.1.15,2013-10-26 04:06:00,
2013-10-26 00:10:00,51.9,42.0,30.24,NNE,25,8.0,8.0,69,0.00,,,0.00,Wunderground v.1.15,2013-10-26 04:10:00,
2013-10-26 00:12:00,51.9,42.0,30.24,NNE,27,8.0,14.0,69,0.00,,,0.00,Wunderground v.1.15,2013-10-26 04:12:00,
2013-10-26 00:18:00,51.7,42.2,30.24,NE,35,8.0,14.0,70,0.00,,,0.00,Wunderground v.1.15,2013-10-26 04:18:00,
2013-10-26 00:24:00,51.7,41.9,30.24,North,11,7.0,10.0,69,0.00,,,0.00,Wunderground v.1.15,2013-10-26 04:24:00,
2013-10-26 00:28:00,51.7,41.9,30.24,NE,52,6.0,11.0,69,0.00,,,0.00,Wunderground v.1.15,2013-10-26 04:28:00,
2013-10-26 00:34:00,51.7,42.2,30.23,NE,49,7.0,10.0,70,0.00,,,0.00,Wunderground v.1.15,2013-10-26 04:34:00,
2013-10-26 00:40:00,51.6,41.8,30.23,NNE,25,7.0,7.0,69,0.00,,,0.00,Wunderground v.1.15,2013-10-26 04:40:00,
2013-10-26 00:46:00,51.4,41.6,30.23,NNW,336,8.0,12.0,69,0.00,,,0.00,Wunderground v.1.15,2013-10-26 04:46:00,
2013-10-26 00:52:00,51.4,41.6,30.23,NNE,25,8.0,8.0,69,0.00,,,0.00,Wunderground v.1.15,2013-10-26 04:52:00,
2013-10-26 00:58:00,51.3,41.1,30.23,NE,40,8.0,11.0,68,0.00,,,0.00,Wunderground v.1.15,2013-10-26 04:58:00,
2013-10-26 01:04:00,51.3,41.5,30.23,NNE,30,8.0,18.0,69,0.00,,,0.00,Wunderground v.1.15,2013-10-26 05:04:00,
2013-10-26 01:10:00,51.6,41.4,30.23,NNE,30,8.0,8.0,68,0.00,,,0.00,Wunderground v.1.15,2013-10-26 05:10:00,
2013-10-26 01:16:00,51.4,41.9,30.23,North,11,7.0,8.0,70,0.00,,,0.00,Wunderground v.1.15,2013-10-26 05:16:00,
2013-10-26 01:22:00,51.3,41.5,30.23,NE,41,7.0,10.0,69,0.00,,,0.00,Wunderground v.1.15,2013-10-26 05:22:00,
2013-10-26 01:28:00,51.3,41.5,30.23,North,356,7.0,10.0,69,0.00,,,0.00,Wunderground v.1.15,2013-10-26 05:28:00,
2013-10-26 01:34:00,51.1,41.7,30.23,ENE,58,7.0,11.0,70,0.00,,,0.00,Wunderground v.1.15,2013-10-26 05:34:00,
2013-10-26 01:40:00,51.0,40.8,30.23,North,4,7.0,8.0,68,0.00,,,0.00,Wunderground v.1.15,2013-10-26 05:40:00,
2013-10-26 01:46:00,50.8,41.0,30.23,NNE,18,7.0,12.0,69,0.00,,,0.00,Wunderground v.1.15,2013-10-26 05:46:00,
2013-10-26 01:52:00,50.8,41.0,30.23,North,354,6.0,6.0,69,0.00,,,0.00,Wunderground v.1.15,2013-10-26 05:52:00,
2013-10-26 01:58:00,50.8,40.6,30.23,NNE,21,5.0,8.0,68,0.00,,,0.00,Wunderground v.1.15,2013-10-26 05:58:00,
2013-10-26 02:04:00,50.7,40.5,30.22,NE,34,6.0,16.0,68,0.00,,,0.00,Wunderground v.1.15,2013-10-26 06:04:00,
2013-10-26 02:10:00,50.5,41.1,30.22,NNE,31,6.0,6.0,70,0.00,,,0.00,Wunderground v.1.15,2013-10-26 06:10:00,
2013-10-26 02:16:00,50.5,41.1,30.22,NNE,23,6.0,6.0,70,0.00,,,0.00,Wunderground v.1.15,2013-10-26 06:16:00,
2013-10-26 02:22:00,50.4,40.6,30.22,North,11,6.0,8.0,69,0.00,,,0.00,Wunderground v.1.15,2013-10-26 06:22:00,
2013-10-26 02:28:00,50.5,40.7,30.22,North,0,7.0,11.0,69,0.00,,,0.00,Wunderground v.1.15,2013-10-26 06:28:00,
2013-10-26 02:34:00,50.7,40.9,30.22,NNE,13,7.0,13.0,69,0.00,,,0.00,Wunderground v.1.15,2013-10-26 06:34:00,
2013-10-26 02:40:00,50.5,41.1,30.22,NNE,27,8.0,8.0,70,0.00,,,0.00,Wunderground v.1.15,2013-10-26 06:40:00,
2013-10-26 02:46:00,50.4,41.3,30.21,NNE,23,9.0,10.0,71,0.00,,,0.00,Wunderground v.1.15,2013-10-26 06:46:00,
2013-10-26 02:52:00,50.4,41.7,30.21,NNE,16,8.0,11.0,72,0.00,,,0.00,Wunderground v.1.15,2013-10-26 06:52:00,
2013-10-26 02:58:00,50.2,42.2,30.21,NNE,14,7.0,11.0,74,0.00,,,0.00,Wunderground v.1.15,2013-10-26 06:58:00,
2013-10-26 03:04:00,49.9,40.9,30.21,NNE,20,7.0,17.0,71,0.00,,,0.00,Wunderground v.1.15,2013-10-26 07:04:00,
2013-10-26 03:10:00,49.6,40.2,30.21,NNE,24,7.0,7.0,70,0.00,,,0.00,Wunderground v.1.15,2013-10-26 07:10:00,
2013-10-26 03:16:00,49.6,41.3,30.20,North,1,6.0,12.0,73,0.00,,,0.00,Wunderground v.1.15,2013-10-26 07:16:00,
2013-10-26 03:22:00,49.5,41.9,30.20,NNE,18,7.0,8.0,75,0.00,,,0.00,Wunderground v.1.15,2013-10-26 07:22:00,
2013-10-26 03:28:00,49.4,41.5,30.20,NNE,16,6.0,8.0,74,0.00,,,0.00,Wunderground v.1.15,2013-10-26 07:28:00,
2013-10-26 03:34:00,49.4,41.8,30.20,NNE,14,7.0,11.0,75,0.00,,,0.00,Wunderground v.1.15,2013-10-26 07:34:00,
2013-10-26 03:40:00,49.2,41.6,30.20,North,359,6.0,8.0,75,0.00,,,0.00,Wunderground v.1.15,2013-10-26 07:40:00,
2013-10-26 03:46:00,49.1,41.5,30.20,North,0,6.0,9.0,75,0.00,,,0.00,Wunderground v.1.15,2013-10-26 07:46:00,
2013-10-26 03:52:00,48.9,40.6,30.20,NNE,28,8.0,8.0,73,0.00,,,0.00,Wunderground v.1.15,2013-10-26 07:52:00,
2013-10-26 03:58:00,49.1,40.8,30.20,North,11,7.0,8.0,73,0.00,,,0.00,Wunderground v.1.15,2013-10-26 07:58:00,
2013-10-26 04:04:00,48.9,41.0,30.19,NNE,30,6.0,17.0,74,0.00,,,0.00,Wunderground v.1.15,2013-10-26 08:04:00,
2013-10-26 04:10:00,48.9,41.3,30.19,North,0,6.0,7.0,75,0.00,,,0.00,Wunderground v.1.15,2013-10-26 08:10:00,
2013-10-26 04:16:00,48.8,40.5,30.19,North,6,7.0,9.0,73,0.00,,,0.00,Wunderground v.1.15,2013-10-26 08:16:00,
2013-10-26 04:22:00,48.8,41.2,30.19,North,4,7.0,9.0,75,0.00,,,0.00,Wunderground v.1.15,2013-10-26 08:22:00,
2013-10-26 04:28:00,48.8,41.6,30.19,North,11,7.0,10.0,76,0.00,,,0.00,Wunderground v.1.15,2013-10-26 08:28:00,
2013-10-26 04:34:00,48.8,41.9,30.19,NNE,17,7.0,11.0,77,0.00,,,0.00,Wunderground v.1.15,2013-10-26 08:34:00,
2013-10-26 04:40:00,48.8,41.9,30.19,East,85,7.0,7.0,77,0.00,,,0.00,Wunderground v.1.15,2013-10-26 08:40:00,
2013-10-26 04:46:00,48.5,42.0,30.19,NNE,14,7.0,8.0,78,0.00,,,0.00,Wunderground v.1.15,2013-10-26 08:46:00,
2013-10-26 04:52:00,48.5,42.6,30.19,NNE,20,7.0,11.0,80,0.00,,,0.00,Wunderground v.1.15,2013-10-26 08:52:00,
2013-10-26 04:58:00,48.5,42.3,30.19,North,357,7.0,11.0,79,0.00,,,0.00,Wunderground v.1.15,2013-10-26 08:58:00,
2013-10-26 05:04:00,48.2,42.0,30.19,NE,40,7.0,17.0,79,0.00,,,0.00,Wunderground v.1.15,2013-10-26 09:04:00,
2013-10-26 05:10:00,47.9,42.3,30.19,NNE,24,7.0,7.0,81,0.00,,,0.00,Wunderground v.1.15,2013-10-26 09:10:00,
2013-10-26 05:16:00,47.9,42.3,30.19,NNE,14,7.0,11.0,81,0.00,,,0.00,Wunderground v.1.15,2013-10-26 09:16:00,
2013-10-26 05:22:00,47.7,42.2,30.19,NNE,21,7.0,11.0,81,0.00,,,0.00,Wunderground v.1.15,2013-10-26 09:22:00,
2013-10-26 05:28:00,47.6,41.7,30.19,NNE,13,7.0,11.0,80,0.00,,,0.00,Wunderground v.1.15,2013-10-26 09:28:00,
2013-10-26 05:34:00,47.4,42.2,30.19,North,7,8.0,8.0,82,0.00,,,0.00,Wunderground v.1.15,2013-10-26 09:34:00,
2013-10-26 05:40:00,47.1,41.9,30.19,North,3,7.0,10.0,82,0.00,,,0.00,Wunderground v.1.15,2013-10-26 09:40:00,
2013-10-26 05:46:00,47.1,42.2,30.19,NNW,346,7.0,10.0,83,0.00,,,0.00,Wunderground v.1.15,2013-10-26 09:46:00,
2013-10-26 05:52:00,47.0,42.1,30.19,North,7,6.0,8.0,83,0.00,,,0.00,Wunderground v.1.15,2013-10-26 09:52:00,
2013-10-26 05:58:00,46.8,42.2,30.19,North,359,6.0,8.0,84,0.00,,,0.00,Wunderground v.1.15,2013-10-26 09:58:00,
2013-10-26 06:04:00,46.7,42.1,30.19,North,359,6.0,14.0,84,0.00,,,0.00,Wunderground v.1.15,2013-10-26 10:04:00,
2013-10-26 06:10:00,46.7,42.1,30.19,NNE,16,6.0,6.0,84,0.00,,,0.00,Wunderground v.1.15,2013-10-26 10:10:00,
2013-10-26 06:16:00,46.7,41.8,30.19,North,7,6.0,10.0,83,0.00,,,0.00,Wunderground v.1.15,2013-10-26 10:16:00,
2013-10-26 06:22:00,46.7,41.8,30.19,North,0,6.0,10.0,83,0.00,,,0.00,Wunderground v.1.15,2013-10-26 10:22:00,
2013-10-26 06:28:00,46.5,41.9,30.19,NNE,16,5.0,10.0,84,0.00,,,0.00,Wunderground v.1.15,2013-10-26 10:28:00,
2013-10-26 06:34:00,46.5,41.9,30.20,NNE,23,5.0,7.0,84,0.00,,,0.00,Wunderground v.1.15,2013-10-26 10:34:00,
2013-10-26 06:40:00,46.5,41.9,30.20,North,353,5.0,6.0,84,0.00,,,0.00,Wunderground v.1.15,2013-10-26 10:40:00,
2013-10-26 06:46:00,46.4,41.5,30.20,NNE,13,5.0,6.0,83,0.00,,,0.00,Wunderground v.1.15,2013-10-26 10:46:00,
2013-10-26 06:52:00,46.5,42.2,30.20,North,357,5.0,6.0,85,0.00,,,0.00,Wunderground v.1.15,2013-10-26 10:52:00,
2013-10-26 06:58:00,46.4,41.8,30.20,North,353,5.0,6.0,84,0.00,,,0.00,Wunderground v.1.15,2013-10-26 10:58:00,
2013-10-26 07:04:00,46.2,41.3,30.20,North,6,5.0,13.0,83,0.00,,,0.00,Wunderground v.1.15,2013-10-26 11:04:00,
2013-10-26 07:10:00,46.2,41.3,30.20,North,11,6.0,8.0,83,0.00,,,0.00,Wunderground v.1.15,2013-10-26 11:10:00,
2013-10-26 07:16:00,46.1,40.9,30.20,North,0,6.0,8.0,82,0.00,,,0.00,Wunderground v.1.15,2013-10-26 11:16:00,
2013-10-26 07:22:00,46.1,41.2,30.20,NNE,14,6.0,6.0,83,0.00,,,0.00,Wunderground v.1.15,2013-10-26 11:22:00,
2013-10-26 07:28:00,46.1,41.5,30.20,NNW,346,5.0,6.0,84,0.00,,,0.00,Wunderground v.1.15,2013-10-26 11:28:00,
2013-10-26 07:34:00,46.1,40.9,30.20,North,10,5.0,10.0,82,0.00,,,0.00,Wunderground v.1.15,2013-10-26 11:34:00,
2013-10-26 07:40:00,46.0,41.1,30.20,North,353,5.0,5.0,83,0.00,,,0.00,Wunderground v.1.15,2013-10-26 11:40:00,
2013-10-26 07:46:00,46.0,41.1,30.20,North,6,5.0,10.0,83,0.00,,,0.00,Wunderground v.1.15,2013-10-26 11:46:00,
2013-10-26 07:52:00,46.2,41.0,30.20,North,3,6.0,11.0,82,0.00,,,0.00,Wunderground v.1.15,2013-10-26 11:52:00,
2013-10-26 07:58:00,46.2,40.4,30.20,North,354,7.0,11.0,80,0.00,,,0.00,Wunderground v.1.15,2013-10-26 11:58:00,
2013-10-26 08:04:00,46.7,41.8,30.20,NNE,17,7.0,12.0,83,0.00,,,0.00,Wunderground v.1.15,2013-10-26 12:04:00,
2013-10-26 08:10:00,46.5,41.3,30.20,North,356,7.0,9.0,82,0.00,,,0.00,Wunderground v.1.15,2013-10-26 12:10:00,
2013-10-26 08:16:00,46.2,40.4,30.20,North,356,7.0,9.0,80,0.00,,,0.00,Wunderground v.1.15,2013-10-26 12:16:00,
2013-10-26 08:22:00,46.7,41.2,30.20,NNW,346,7.0,8.0,81,0.00,,,0.00,Wunderground v.1.15,2013-10-26 12:22:00,
2013-10-26 08:28:00,47.0,41.1,30.20,North,359,6.0,8.0,80,0.00,,,0.00,Wunderground v.1.15,2013-10-26 12:28:00,
2013-10-26 08:34:00,47.1,40.9,30.20,North,359,5.0,8.0,79,0.00,,,0.00,Wunderground v.1.15,2013-10-26 12:34:00,
2013-10-26 08:40:00,47.4,41.2,30.20,North,0,6.0,6.0,79,0.00,,,0.00,Wunderground v.1.15,2013-10-26 12:40:00,
2013-10-26 08:46:00,47.6,40.7,30.20,North,356,6.0,7.0,77,0.00,,,0.00,Wunderground v.1.15,2013-10-26 12:46:00,
2013-10-26 08:52:00,48.0,41.5,30.20,North,1,5.0,8.0,78,0.00,,,0.00,Wunderground v.1.15,2013-10-26 12:52:00,
2013-10-26 08:58:00,48.6,41.0,30.20,NE,35,5.0,8.0,75,0.00,,,0.00,Wunderground v.1.15,2013-10-26 12:58:00,
2013-10-26 09:04:00,48.9,41.0,30.20,North,8,5.0,12.0,74,0.00,,,0.00,Wunderground v.1.15,2013-10-26 13:04:00,
2013-10-26 09:10:00,49.5,41.2,30.20,North,7,4.0,4.0,73,0.00,,,0.00,Wunderground v.1.15,2013-10-26 13:10:00,
2013-10-26 09:16:00,50.1,42.1,30.21,North,359,4.0,4.0,74,0.00,,,0.00,Wunderground v.1.15,2013-10-26 13:16:00,
2013-10-26 09:22:00,50.7,42.0,30.21,NNE,17,4.0,4.0,72,0.00,,,0.00,Wunderground v.1.15,2013-10-26 13:22:00,
2013-10-26 09:28:00,51.0,41.2,30.21,North,356,4.0,6.0,69,0.00,,,0.00,Wunderground v.1.15,2013-10-26 13:28:00,
2013-10-26 09:34:00,51.3,40.7,30.21,North,7,5.0,8.0,67,0.00,,,0.00,Wunderground v.1.15,2013-10-26 13:34:00,
2013-10-26 09:40:00,51.7,40.3,30.21,NNE,23,6.0,7.0,65,0.00,,,0.00,Wunderground v.1.15,2013-10-26 13:40:00,
2013-10-26 09:46:00,52.2,40.8,30.20,NNE,18,5.0,7.0,65,0.00,,,0.00,Wunderground v.1.15,2013-10-26 13:46:00,
2013-10-26 09:52:00,52.6,40.8,30.20,NNE,24,5.0,6.0,64,0.00,,,0.00,Wunderground v.1.15,2013-10-26 13:52:00,
2013-10-26 09:58:00,52.9,39.8,30.20,NE,35,6.0,7.0,61,0.00,,,0.00,Wunderground v.1.15,2013-10-26 13:58:00,
2013-10-26 10:04:00,53.1,40.0,30.20,NNE,18,6.0,12.0,61,0.00,,,0.00,Wunderground v.1.15,2013-10-26 14:04:00,
2013-10-26 10:10:00,53.3,40.2,30.20,NNE,32,5.0,5.0,61,0.00,,,0.00,Wunderground v.1.15,2013-10-26 14:10:00,
2013-10-26 10:16:00,53.9,42.0,30.20,North,0,5.0,6.0,64,0.00,,,0.00,Wunderground v.1.15,2013-10-26 14:16:00,
2013-10-26 10:22:00,54.4,42.1,30.20,NNE,30,4.0,4.0,63,0.00,,,0.00,Wunderground v.1.15,2013-10-26 14:22:00,
2013-10-26 10:28:00,54.7,42.8,30.20,North,359,4.0,5.0,64,0.00,,,0.00,Wunderground v.1.15,2013-10-26 14:28:00,
2013-10-26 10:34:00,55.0,42.6,30.20,North,0,5.0,7.0,63,0.00,,,0.00,Wunderground v.1.15,2013-10-26 14:34:00,
2013-10-26 10:40:00,55.1,42.3,30.20,North,8,5.0,6.0,62,0.00,,,0.00,Wunderground v.1.15,2013-10-26 14:40:00,
2013-10-26 10:46:00,55.7,42.5,30.20,NNE,23,4.0,6.0,61,0.00,,,0.00,Wunderground v.1.15,2013-10-26 14:46:00,
2013-10-26 10:52:00,55.7,42.9,30.20,NE,45,4.0,4.0,62,0.00,,,0.00,Wunderground v.1.15,2013-10-26 14:52:00,
2013-10-26 10:58:00,55.9,42.6,30.20,NNW,347,4.0,8.0,61,0.00,,,0.00,Wunderground v.1.15,2013-10-26 14:58:00,
2013-10-26 11:04:00,56.2,43.8,30.21,NNE,32,5.0,12.0,63,0.00,,,0.00,Wunderground v.1.15,2013-10-26 15:04:00,
2013-10-26 11:10:00,56.3,43.4,30.21,North,359,4.0,6.0,62,0.00,,,0.00,Wunderground v.1.15,2013-10-26 15:10:00,
2013-10-26 11:16:00,56.7,42.5,30.21,North,0,4.0,6.0,59,0.00,,,0.00,Wunderground v.1.15,2013-10-26 15:16:00,
2013-10-26 11:22:00,57.0,43.2,30.21,North,356,3.0,3.0,60,0.00,,,0.00,Wunderground v.1.15,2013-10-26 15:22:00,
2013-10-26 11:28:00,57.5,43.7,30.21,NE,38,3.0,4.0,60,0.00,,,0.00,Wunderground v.1.15,2013-10-26 15:28:00,
2013-10-26 11:34:00,58.1,43.8,30.21,NNE,24,3.0,5.0,59,0.00,,,0.00,Wunderground v.1.15,2013-10-26 15:34:00,
2013-10-26 11:40:00,58.6,44.3,30.21,North,7,3.0,5.0,59,0.00,,,0.00,Wunderground v.1.15,2013-10-26 15:40:00,
2013-10-26 11:46:00,59.0,45.1,30.20,North,359,3.0,6.0,60,0.00,,,0.00,Wunderground v.1.15,2013-10-26 15:46:00,
2013-10-26 11:52:00,59.3,45.4,30.20,NNE,25,4.0,4.0,60,0.00,,,0.00,Wunderground v.1.15,2013-10-26 15:52:00,
2013-10-26 11:58:00,59.3,45.0,30.20,NE,51,2.0,4.0,59,0.00,,,0.00,Wunderground v.1.15,2013-10-26 15:58:00,
2013-10-26 12:04:00,59.8,45.4,30.19,NNE,20,2.0,11.0,59,0.00,,,0.00,Wunderground v.1.15,2013-10-26 16:04:00,
2013-10-26 12:10:00,59.9,46.0,30.19,North,0,3.0,3.0,60,0.00,,,0.00,Wunderground v.1.15,2013-10-26 16:10:00,
2013-10-26 12:16:00,59.6,45.7,30.19,North,352,3.0,3.0,60,0.00,,,0.00,Wunderground v.1.15,2013-10-26 16:16:00,
2013-10-26 12:22:00,59.2,45.8,30.19,North,357,3.0,3.0,61,0.00,,,0.00,Wunderground v.1.15,2013-10-26 16:22:00,
2013-10-26 12:28:00,59.8,45.4,30.19,NE,35,2.0,3.0,59,0.00,,,0.00,Wunderground v.1.15,2013-10-26 16:28:00,
2013-10-26 12:34:00,60.2,46.3,30.18,North,354,2.0,3.0,60,0.00,,,0.00,Wunderground v.1.15,2013-10-26 16:34:00,
2013-10-26 12:40:00,60.9,46.5,30.18,NNW,343,2.0,2.0,59,0.00,,,0.00,Wunderground v.1.15,2013-10-26 16:40:00,
2013-10-26 12:46:00,60.7,47.2,30.18,NNW,339,2.0,2.0,61,0.00,,,0.00,Wunderground v.1.15,2013-10-26 16:46:00,
2013-10-26 12:52:00,60.9,47.8,30.18,NNW,337,2.0,2.0,62,0.00,,,0.00,Wunderground v.1.15,2013-10-26 16:52:00,
2013-10-26 12:58:00,60.5,47.4,30.18,NNW,342,2.0,3.0,62,0.00,,,0.00,Wunderground v.1.15,2013-10-26 16:58:00,
2013-10-26 13:04:00,60.5,47.8,30.17,NNW,328,3.0,10.0,63,0.00,,,0.00,Wunderground v.1.15,2013-10-26 17:04:00,
2013-10-26 13:10:00,60.2,45.8,30.17,North,353,3.0,3.0,59,0.00,,,0.00,Wunderground v.1.15,2013-10-26 17:10:00,
2013-10-26 13:16:00,60.7,47.2,30.16,NNW,340,2.0,5.0,61,0.00,,,0.00,Wunderground v.1.15,2013-10-26 17:16:00,
2013-10-26 13:22:00,60.9,48.2,30.16,North,353,3.0,3.0,63,0.00,,,0.00,Wunderground v.1.15,2013-10-26 17:22:00,
2013-10-26 13:28:00,61.2,47.6,30.16,NNW,347,4.0,6.0,61,0.00,,,0.00,Wunderground v.1.15,2013-10-26 17:28:00,
2013-10-26 13:34:00,61.5,48.8,30.15,NNW,344,4.0,5.0,63,0.00,,,0.00,Wunderground v.1.15,2013-10-26 17:34:00,
2013-10-26 13:40:00,61.6,48.0,30.15,NNW,328,3.0,3.0,61,0.00,,,0.00,Wunderground v.1.15,2013-10-26 17:40:00,
2013-10-26 13:46:00,61.2,48.5,30.14,NW,323,3.0,3.0,63,0.00,,,0.00,Wunderground v.1.15,2013-10-26 17:46:00,
2013-10-26 13:52:00,61.8,48.6,30.14,NNW,344,2.0,2.0,62,0.00,,,0.00,Wunderground v.1.15,2013-10-26 17:52:00,
2013-10-26 13:58:00,62.1,48.5,30.14,North,353,2.0,3.0,61,0.00,,,0.00,Wunderground v.1.15,2013-10-26 17:58:00,
2013-10-26 14:04:00,62.1,48.5,30.13,NW,320,2.0,6.0,61,0.00,,,0.00,Wunderground v.1.15,2013-10-26 18:04:00,
2013-10-26 14:10:00,62.3,48.7,30.13,NNW,328,3.0,3.0,61,0.00,,,0.00,Wunderground v.1.15,2013-10-26 18:10:00,
2013-10-26 14:16:00,62.4,48.3,30.13,NNW,346,3.0,5.0,60,0.00,,,0.00,Wunderground v.1.15,2013-10-26 18:16:00,
2013-10-26 14:22:00,62.7,48.6,30.13,NNW,342,4.0,6.0,60,0.00,,,0.00,Wunderground v.1.15,2013-10-26 18:22:00,
2013-10-26 14:28:00,62.9,48.3,30.13,NNW,336,4.0,6.0,59,0.00,,,0.00,Wunderground v.1.15,2013-10-26 18:28:00,
2013-10-26 14:34:00,63.2,48.2,30.12,NNW,342,3.0,4.0,58,0.00,,,0.00,Wunderground v.1.15,2013-10-26 18:34:00,
2013-10-26 14:40:00,64.0,48.5,30.12,NNW,342,2.0,3.0,57,0.00,,,0.00,Wunderground v.1.15,2013-10-26 18:40:00,
2013-10-26 14:46:00,64.0,48.5,30.12,NNW,343,2.0,3.0,57,0.00,,,0.00,Wunderground v.1.15,2013-10-26 18:46:00,
2013-10-26 14:52:00,63.7,48.6,30.12,NNW,343,3.0,5.0,58,0.00,,,0.00,Wunderground v.1.15,2013-10-26 18:52:00,
2013-10-26 14:58:00,63.2,48.2,30.12,NNW,344,4.0,5.0,58,0.00,,,0.00,Wunderground v.1.15,2013-10-26 18:58:00,
2013-10-26 15:04:00,63.2,48.2,30.11,NNW,344,3.0,7.0,58,0.00,,,0.00,Wunderground v.1.15,2013-10-26 19:04:00,
2013-10-26 15:10:00,63.4,48.8,30.11,NNW,344,3.0,3.0,59,0.00,,,0.00,Wunderground v.1.15,2013-10-26 19:10:00,
2013-10-26 15:16:00,64.3,48.7,30.11,North,352,2.0,3.0,57,0.00,,,0.00,Wunderground v.1.15,2013-10-26 19:16:00,
2013-10-26 15:22:00,65.0,49.4,30.11,North,352,2.0,2.0,57,0.00,,,0.00,Wunderground v.1.15,2013-10-26 19:22:00,
2013-10-26 15:28:00,66.0,49.4,30.11,North,352,2.0,2.0,55,0.00,,,0.00,Wunderground v.1.15,2013-10-26 19:28:00,
2013-10-26 15:34:00,66.1,49.0,30.10,North,352,1.0,2.0,54,0.00,,,0.00,Wunderground v.1.15,2013-10-26 19:34:00,
2013-10-26 15:40:00,66.3,48.7,30.10,North,352,1.0,1.0,53,0.00,,,0.00,Wunderground v.1.15,2013-10-26 19:40:00,
2013-10-26 15:46:00,66.9,49.7,30.10,North,353,0.0,2.0,54,0.00,,,0.00,Wunderground v.1.15,2013-10-26 19:46:00,
2013-10-26 15:52:00,66.8,49.1,30.10,ENE,59,1.0,1.0,53,0.00,,,0.00,Wunderground v.1.15,2013-10-26 19:52:00,
2013-10-26 15:58:00,66.9,50.2,30.10,NE,48,2.0,2.0,55,0.00,,,0.00,Wunderground v.1.15,2013-10-26 19:58:00,
2013-10-26 16:04:00,66.6,50.4,30.09,NE,54,2.0,7.0,56,0.00,,,0.00,Wunderground v.1.15,2013-10-26 20:04:00,
2013-10-26 16:10:00,66.6,50.4,30.09,NE,38,3.0,6.0,56,0.00,,,0.00,Wunderground v.1.15,2013-10-26 20:10:00,
2013-10-26 16:16:00,65.2,50.5,30.08,NNW,330,4.0,7.0,59,0.00,,,0.00,Wunderground v.1.15,2013-10-26 20:16:00,
2013-10-26 16:22:00,64.3,49.7,30.08,NNW,344,5.0,6.0,59,0.00,,,0.00,Wunderground v.1.15,2013-10-26 20:22:00,
2013-10-26 16:28:00,64.7,50.9,30.08,NNW,346,4.0,6.0,61,0.00,,,0.00,Wunderground v.1.15,2013-10-26 20:28:00,
2013-10-26 16:34:00,65.0,51.2,30.08,NW,323,4.0,6.0,61,0.00,,,0.00,Wunderground v.1.15,2013-10-26 20:34:00,
2013-10-26 16:40:00,64.5,50.7,30.08,North,356,4.0,4.0,61,0.00,,,0.00,Wunderground v.1.15,2013-10-26 20:40:00,
2013-10-26 16:46:00,64.8,50.1,30.08,North,0,3.0,4.0,59,0.00,,,0.00,Wunderground v.1.15,2013-10-26 20:46:00,
2013-10-26 16:52:00,65.3,51.5,30.08,NW,320,2.0,6.0,61,0.00,,,0.00,Wunderground v.1.15,2013-10-26 20:52:00,
2013-10-26 16:58:00,65.6,51.8,30.08,SE,140,2.0,6.0,61,0.00,,,0.00,Wunderground v.1.15,2013-10-26 20:58:00,
2013-10-26 17:04:00,66.0,51.7,30.07,SSE,160,1.0,5.0,60,0.00,,,0.00,Wunderground v.1.15,2013-10-26 21:04:00,
2013-10-26 17:10:00,65.6,51.8,30.07,SW,219,1.0,1.0,61,0.00,,,0.00,Wunderground v.1.15,2013-10-26 21:10:00,
2013-10-26 17:16:00,64.5,52.0,30.07,South,189,2.0,2.0,64,0.00,,,0.00,Wunderground v.1.15,2013-10-26 21:16:00,
2013-10-26 17:22:00,63.5,51.9,30.07,South,185,2.0,2.0,66,0.00,,,0.00,Wunderground v.1.15,2013-10-26 21:22:00,
2013-10-26 17:28:00,63.2,51.6,30.07,South,185,2.0,3.0,66,0.00,,,0.00,Wunderground v.1.15,2013-10-26 21:28:00,
2013-10-26 17:34:00,62.9,51.8,30.07,SW,224,2.0,2.0,67,0.00,,,0.00,Wunderground v.1.15,2013-10-26 21:34:00,
2013-10-26 17:40:00,62.6,51.9,30.07,SSW,198,2.0,2.0,68,0.00,,,0.00,Wunderground v.1.15,2013-10-26 21:40:00,
2013-10-26 17:46:00,62.6,51.5,30.06,SW,220,2.0,3.0,67,0.00,,,0.00,Wunderground v.1.15,2013-10-26 21:46:00,
2013-10-26 17:52:00,62.3,51.6,30.06,SSW,199,2.0,3.0,68,0.00,,,0.00,Wunderground v.1.15,2013-10-26 21:52:00,
2013-10-26 17:58:00,62.0,51.7,30.06,SSW,206,2.0,3.0,69,0.00,,,0.00,Wunderground v.1.15,2013-10-26 21:58:00,
2013-10-26 18:04:00,61.8,51.5,30.06,West,261,2.0,8.0,69,0.00,,,0.00,Wunderground v.1.15,2013-10-26 22:04:00,
2013-10-26 18:10:00,61.6,51.7,30.06,WSW,248,2.0,4.0,70,0.00,,,0.00,Wunderground v.1.15,2013-10-26 22:10:00,
2013-10-26 18:16:00,61.2,52.1,30.06,SSW,210,2.0,4.0,72,0.00,,,0.00,Wunderground v.1.15,2013-10-26 22:16:00,
2013-10-26 18:22:00,60.7,52.4,30.06,South,184,1.0,2.0,74,0.00,,,0.00,Wunderground v.1.15,2013-10-26 22:22:00,
2013-10-26 18:28:00,60.2,52.2,30.06,NW,309,1.0,2.0,75,0.00,,,0.00,Wunderground v.1.15,2013-10-26 22:28:00,
2013-10-26 18:34:00,59.8,52.2,30.06,SW,220,1.0,1.0,76,0.00,,,0.00,Wunderground v.1.15,2013-10-26 22:34:00,
2013-10-26 18:40:00,59.5,52.6,30.06,SW,222,1.0,1.0,78,0.00,,,0.00,Wunderground v.1.15,2013-10-26 22:40:00,
2013-10-26 18:46:00,59.2,52.0,30.07,NW,319,1.0,3.0,77,0.00,,,0.00,Wunderground v.1.15,2013-10-26 22:46:00,
2013-10-26 18:52:00,59.0,52.1,30.07,WSW,250,2.0,3.0,78,0.00,,,0.00,Wunderground v.1.15,2013-10-26 22:52:00,
2013-10-26 18:58:00,58.9,52.4,30.07,West,263,1.0,3.0,79,0.00,,,0.00,Wunderground v.1.15,2013-10-26 22:58:00,
2013-10-26 19:04:00,58.7,52.2,30.07,WSW,256,1.0,6.0,79,0.00,,,0.00,Wunderground v.1.15,2013-10-26 23:04:00,
2013-10-26 19:10:00,58.6,52.1,30.07,WSW,254,1.0,2.0,79,0.00,,,0.00,Wunderground v.1.15,2013-10-26 23:10:00,
2013-10-26 19:16:00,58.3,52.2,30.07,WSW,254,1.0,4.0,80,0.00,,,0.00,Wunderground v.1.15,2013-10-26 23:16:00,
2013-10-26 19:22:00,58.3,52.2,30.07,SW,227,1.0,2.0,80,0.00,,,0.00,Wunderground v.1.15,2013-10-26 23:22:00,
2013-10-26 19:28:00,58.3,52.2,30.07,SW,232,2.0,2.0,80,0.00,,,0.00,Wunderground v.1.15,2013-10-26 23:28:00,
2013-10-26 19:34:00,58.1,52.0,30.07,WNW,296,2.0,2.0,80,0.00,,,0.00,Wunderground v.1.15,2013-10-26 23:34:00,
2013-10-26 19:40:00,58.0,51.5,30.07,WNW,298,1.0,4.0,79,0.00,,,0.00,Wunderground v.1.15,2013-10-26 23:40:00,
2013-10-26 19:46:00,58.1,51.3,30.07,North,356,2.0,5.0,78,0.00,,,0.00,Wunderground v.1.15,2013-10-26 23:46:00,
2013-10-26 19:52:00,58.3,51.5,30.07,NW,322,3.0,5.0,78,0.00,,,0.00,Wunderground v.1.15,2013-10-26 23:52:00,
2013-10-26 19:58:00,58.6,51.4,30.07,North,357,4.0,5.0,77,0.00,,,0.00,Wunderground v.1.15,2013-10-26 23:58:00,
2013-10-26 20:04:00,58.4,51.6,30.07,NW,322,5.0,6.0,78,0.00,,,0.00,Wunderground v.1.15,2013-10-27 00:04:00,
2013-10-26 20:10:00,58.0,51.5,30.07,WNW,285,5.0,5.0,79,0.00,,,0.00,Wunderground v.1.15,2013-10-27 00:10:00,
2013-10-26 20:16:00,57.8,51.3,30.07,NW,316,5.0,5.0,79,0.00,,,0.00,Wunderground v.1.15,2013-10-27 00:16:00,
2013-10-26 20:22:00,57.6,50.8,30.07,NW,305,5.0,5.0,78,0.00,,,0.00,Wunderground v.1.15,2013-10-27 00:22:00,
2013-10-26 20:28:00,57.5,50.7,30.07,NW,318,3.0,5.0,78,0.00,,,0.00,Wunderground v.1.15,2013-10-27 00:28:00,
2013-10-26 20:34:00,57.2,50.7,30.07,WNW,301,2.0,2.0,79,0.00,,,0.00,Wunderground v.1.15,2013-10-27 00:34:00,
2013-10-26 20:40:00,56.9,50.8,30.07,WNW,292,2.0,2.0,80,0.00,,,0.00,Wunderground v.1.15,2013-10-27 00:40:00,
2013-10-26 20:46:00,56.7,50.6,30.07,WNW,298,2.0,2.0,80,0.00,,,0.00,Wunderground v.1.15,2013-10-27 00:46:00,
2013-10-26 20:52:00,56.3,50.5,30.07,WNW,299,2.0,2.0,81,0.00,,,0.00,Wunderground v.1.15,2013-10-27 00:52:00,
2013-10-26 20:58:00,56.2,50.4,30.07,WNW,298,2.0,2.0,81,0.00,,,0.00,Wunderground v.1.15,2013-10-27 00:58:00,
2013-10-26 21:04:00,56.3,50.5,30.07,NNW,328,2.0,7.0,81,0.00,,,0.00,Wunderground v.1.15,2013-10-27 01:04:00,
2013-10-26 21:10:00,56.2,50.4,30.07,NW,305,2.0,2.0,81,0.00,,,0.00,Wunderground v.1.15,2013-10-27 01:10:00,
2013-10-26 21:16:00,56.0,49.9,30.08,WNW,298,2.0,3.0,80,0.00,,,0.00,Wunderground v.1.15,2013-10-27 01:16:00,
2013-10-26 21:22:00,56.0,49.9,30.08,WNW,292,3.0,3.0,80,0.00,,,0.00,Wunderground v.1.15,2013-10-27 01:22:00,
2013-10-26 21:28:00,55.7,50.0,30.08,WNW,301,3.0,3.0,81,0.00,,,0.00,Wunderground v.1.15,2013-10-27 01:28:00,
2013-10-26 21:34:00,55.6,49.5,30.08,NW,315,2.0,3.0,80,0.00,,,0.00,Wunderground v.1.15,2013-10-27 01:34:00,
2013-10-26 21:40:00,55.4,49.0,30.08,WNW,301,2.0,3.0,79,0.00,,,0.00,Wunderground v.1.15,2013-10-27 01:40:00,
2013-10-26 21:46:00,55.1,48.4,30.07,WNW,282,2.0,3.0,78,0.00,,,0.00,Wunderground v.1.15,2013-10-27 01:46:00,
2013-10-26 21:52:00,55.0,48.3,30.07,WNW,295,2.0,2.0,78,0.00,,,0.00,Wunderground v.1.15,2013-10-27 01:52:00,
2013-10-26 21:58:00,55.0,47.6,30.07,NNW,337,2.0,3.0,76,0.00,,,0.00,Wunderground v.1.15,2013-10-27 01:58:00,
2013-10-26 22:04:00,55.0,47.6,30.07,WNW,284,2.0,9.0,76,0.00,,,0.00,Wunderground v.1.15,2013-10-27 02:04:00,
2013-10-26 22:10:00,55.0,47.6,30.07,WNW,298,2.0,2.0,76,0.00,,,0.00,Wunderground v.1.15,2013-10-27 02:10:00,
2013-10-26 22:16:00,55.0,47.2,30.07,WNW,285,2.0,2.0,75,0.00,,,0.00,Wunderground v.1.15,2013-10-27 02:16:00,
2013-10-26 22:22:00,55.1,47.0,30.07,WNW,288,2.0,2.0,74,0.00,,,0.00,Wunderground v.1.15,2013-10-27 02:22:00,
2013-10-26 22:28:00,55.0,46.9,30.07,NW,306,2.0,3.0,74,0.00,,,0.00,Wunderground v.1.15,2013-10-27 02:28:00,
2013-10-26 22:34:00,55.0,46.5,30.07,WNW,291,2.0,2.0,73,0.00,,,0.00,Wunderground v.1.15,2013-10-27 02:34:00,
2013-10-26 22:40:00,54.8,46.7,30.07,WNW,292,2.0,3.0,74,0.00,,,0.00,Wunderground v.1.15,2013-10-27 02:40:00,
2013-10-26 22:46:00,54.8,47.0,30.07,NW,304,3.0,3.0,75,0.00,,,0.00,Wunderground v.1.15,2013-10-27 02:46:00,
2013-10-26 22:52:00,55.0,46.9,30.07,WNW,292,3.0,3.0,74,0.00,,,0.00,Wunderground v.1.15,2013-10-27 02:52:00,
2013-10-26 22:58:00,54.7,46.9,30.07,WNW,288,3.0,5.0,75,0.00,,,0.00,Wunderground v.1.15,2013-10-27 02:58:00,
2013-10-26 23:04:00,54.4,46.6,30.08,NNW,339,5.0,5.0,75,0.00,,,0.00,Wunderground v.1.15,2013-10-27 03:04:00,
2013-10-26 23:10:00,54.4,46.6,30.08,WNW,301,5.0,5.0,75,0.00,,,0.00,Wunderground v.1.15,2013-10-27 03:10:00,
2013-10-26 23:16:00,54.2,46.4,30.08,WNW,296,5.0,6.0,75,0.00,,,0.00,Wunderground v.1.15,2013-10-27 03:16:00,
2013-10-26 23:22:00,53.9,46.2,30.08,WNW,299,4.0,4.0,75,0.00,,,0.00,Wunderground v.1.15,2013-10-27 03:22:00,
2013-10-26 23:28:00,53.9,45.8,30.08,WNW,302,3.0,4.0,74,0.00,,,0.00,Wunderground v.1.15,2013-10-27 03:28:00,
2013-10-26 23:34:00,53.9,45.8,30.07,WNW,302,2.0,3.0,74,0.00,,,0.00,Wunderground v.1.15,2013-10-27 03:34:00,
2013-10-26 23:40:00,54.1,45.6,30.07,WNW,294,2.0,2.0,73,0.00,,,0.00,Wunderground v.1.15,2013-10-27 03:40:00,
2013-10-26 23:46:00,54.2,45.0,30.07,NW,309,2.0,2.0,71,0.00,,,0.00,Wunderground v.1.15,2013-10-27 03:46:00,
2013-10-26 23:52:00,54.2,43.9,30.07,WNW,298,2.0,3.0,68,0.00,,,0.00,Wunderground v.1.15,2013-10-27 03:52:00,
2013-10-26 23:58:00,54.2,43.5,30.07,WNW,298,2.0,3.0,67,0.00,,,0.00,Wunderground v.1.15,2013-10-27 03:58:00,